YAOGAN 1 DEB, 36365

Orbit data source: Space-Track

YAOGAN 1 DEB, 36365 is space debris in SSO originally from a launch on Wed, 26 Apr 2006 UTC launched from the Taiyaun Space Center, China (TSC). Debris objects in space refer to the collection of defunct objects orbiting the Earth. Examples of debris include non-operational satellites, rocket bodies, and fragments generated from explosions, collisions, or faulty payload assembly.

Loading next visibility...
Identifier
36365, 2006-015J
Orbit
SSO
Country
Flag of CNCN / PRC
Related business
Manufacturer
SAST
Mission
Spacecraft
Bus & Motor
Unknown
Mass
Unknown
Launch date (UTC)
2006-04-26 (20 years ago)
Launch vehicle
Unknown
Launch site
Taiyaun Space Center, China (TSC)
Object type
Payload
Rocket body
Debris
Shape & HBR
Unknown shape, 1.3 m
Radar Cross Section
Large (>1 m²)

Expand to show TLE details & history
Last TLE update: 4 hours ago

TLE from 4 hours ago
0 YAOGAN 1 DEB
1 36365U 06015J   26071.61664798  .00010940  00000-0  54254-3 0  9995
2 36365  97.7698 141.5619 0012340 164.1422 196.0200 15.17848484873734
Epoch: 2026-03-12T14:47Z
TLE epoch observation values (Epoch: 2026-03-12T14:47:58.385Z)
Latitude
Longitude
109.30466°
Altitude
523.596 km
Speed
7.597 km/s
True Right ascension
09h 26m 14s
True Declination
0° 00' 00"
Sunlit
Object was in full shadow at epoch
Visualization orbit readout
Latitude
Unknown
Longitude
Unknown
Altitude
Unknown
Speed
Unknown
Apparent Right ascension
Unknown
Apparent Declination
Unknown
Sunlit
N/A
Visualization observer readout
Local Sidereal Time
23:23:56
Azimuth
Unknown
Elevation
Unknown
Doppler factor
Unknown
Orbital elements
Apogee altitude
517.828 km
Perigee altitude
500.83 km
Semi-major axis
6,887.466 km
Eccentricity
0.00123
Inclination
97.7698°
RAAN
141.5619°
Arg. of periapsis
164.1422°
True anomaly
195.98103°
Mean anomaly
196.02°
Eccentric anomaly
196.00051°
Mean motion
3.79712 °/min
Orbital period
94.81 mins
BSTAR
0.00054254
Loading maneuver chart data...
Computing Atmospheric mass density...
Loading historical data...
Loading historical data...
Loading historical data...
Loading historical data...
Loading historical data...
Loading historical data...
Loading historical data...

Documentation

Showing up to 5 results
|